Location: Bastelaar
(51.0950°N, 3.8602°E)
Time: 02:12:17
(UTC+00:00)

ARIANE 6 FM1 Upper Stage - Pass Details

Date: 01 February 2026
Orbit: 522 x 609 km, 62.0° (Epoch: 13 February)

Event Time Altitude Azimuth Distance (km) Brightness Sun altitude
Rises 19:13:42 0° 290° (WNW) 2,679 7.4 -24.9°
Reaches altitude 10° 19:16:31 10° 311° (NW) 1,779 5.9 -25.3°
Enters shadow 19:18:59 17° 349° (N) 1,368 4.8 -25.7°
